Debrecen, Hungary

5:29 PM CEST on April 25, 2017 (GMT +0200)
Debrecen

Weather History for LHDC - January, 2013

Change the Weather History Date:

Monday, January 21, 2013

  Actual Average Record
Temperature  
Mean Temperature 46 °F -  
Max Temperature 64 °F 37 °F - ()
Min Temperature 34 °F 26 °F - ()
Degree Days  
Heating Degree Days 20    
Moisture  
Dew Point 42 °F    
Average Humidity 89    
Maximum Humidity 100    
Minimum Humidity 67    
Precipitation  
Precipitation 0.00 in 0.04 in - ()
Sea Level Pressure  
Sea Level Pressure 29.49 in    
Wind  
Wind Speed 5 mph ()    
Max Wind Speed 12 mph    
Max Gust Speed -    
Visibility 3.7 miles    
Events Rain    
T = Trace of Precipitation, MM = Missing Value Source: Averaged Metar Reports

Daily Weather History Graph

Daily Weather History Graph

Search for Another Location

Airport or City:

Trip Planner

Search our weather history database for the weather conditions in past years. The results will help you decide how hot, cold, wet, or windy it might be!

Date:

Astronomy

Jan. 21, 2013 Rise Set
Actual Time 7:11 AM CET 4:18 PM CET
Civil Twilight 6:37 AM CET 4:52 PM CET
Nautical Twilight 6:00 AM CET 5:30 PM CET
Astronomical Twilight 5:23 AM CET 6:06 PM CET
Moon 11:45 AM CET (1/21) 2:23 AM CET (1/21)
Length of Visible Light 10h 14m
Length of Day
9h 06m
Waxing Gibbous, 73% of the Moon is Illuminated
Jan 21
Waxing Gibbous
Jan 27
Full
Feb 3
Last Quarter
Feb 10
New
Feb 17
First Quarter

Hourly Weather History & Observations

Time (CET) Temp. Windchill Dew Point Humidity Pressure Visibility Wind Dir Wind Speed Gust Speed Precip Events Conditions
1:00 AM 35 °F - 34 °F 95% 29.55 in - NE 6.7 mph - -  
1:01 AM 35.6 °F 29.9 °F 33.8 °F 93% 29.53 in - NE 6.9 mph - N/A   Unknown
5:15 AM 35.6 °F 31.7 °F 33.8 °F 93% 29.50 in 3.1 mi NE 4.6 mph - N/A   Mostly Cloudy
5:45 AM 33.8 °F 29.6 °F 33.8 °F 100% 29.50 in 3.1 mi East 4.6 mph - N/A   Mostly Cloudy
6:00 AM - - - N/A% - 3.1 mi East 5.8 mph - N/A   Mostly Cloudy
6:15 AM 35.6 °F 31.7 °F 35.6 °F 100% 29.50 in 3.1 mi ENE 4.6 mph - N/A   Mostly Cloudy
6:45 AM 35.6 °F 31.7 °F 35.6 °F 100% 29.50 in 3.1 mi East 4.6 mph - N/A   Mostly Cloudy
7:00 AM 35 °F - 35 °F 98% 29.52 in 3 mi East 4.5 mph - -   Mist
7:15 AM 35.6 °F 30.7 °F 35.6 °F 100% 29.50 in 3.1 mi East 5.8 mph - N/A   Mostly Cloudy
7:45 AM 35.6 °F - 35.6 °F 100% 29.50 in 3.1 mi ENE 2.3 mph - N/A   Mostly Cloudy
8:45 AM 39.2 °F - 39.2 °F 100% 29.50 in 2.5 mi Calm Calm - N/A Rain Light Rain
9:02 AM - - - N/A% - 1.9 mi Variable 3.5 mph - N/A   Mostly Cloudy
9:05 AM - - - N/A% 29.50 in - East 6.9 mph - N/A   Unknown
9:15 AM 39.2 °F 35.0 °F 39.2 °F 100% 29.50 in 2.5 mi East 5.8 mph - N/A   Mostly Cloudy
9:45 AM 41.0 °F 37.1 °F 41.0 °F 100% 29.50 in 3.1 mi East 5.8 mph - N/A   Mostly Cloudy
10:15 AM 42.8 °F 40.1 °F 42.8 °F 100% 29.50 in 3.1 mi East 4.6 mph - N/A   Mostly Cloudy
10:45 AM 44.6 °F 41.4 °F 44.6 °F 100% 29.50 in 3.1 mi East 5.8 mph - N/A   Mostly Cloudy
11:15 AM 48.2 °F - 46.4 °F 93% 29.47 in 5.0 mi East 5.8 mph - N/A   Mostly Cloudy
11:45 AM 51.8 °F - 46.4 °F 82% 29.47 in 6.2 mi SE 4.6 mph - N/A   Mostly Cloudy
12:00 PM - - - N/A% - 6.2 mi SSE 11.5 mph - N/A   Mostly Cloudy
12:15 PM 55.4 °F - 48.2 °F 77% 29.47 in - South 6.9 mph - N/A   Clear
12:45 PM 57.2 °F - 46.4 °F 67% 29.47 in - SSW 11.5 mph - N/A   Clear
1:15 PM 55.4 °F - 46.4 °F 72% 29.47 in - SSW 9.2 mph - N/A   Clear
1:23 PM 57.2 °F - 53.6 °F 88% 29.47 in - SSW 11.5 mph - N/A   Unknown
1:45 PM 55.4 °F - 46.4 °F 72% 29.47 in - SSW 10.4 mph - N/A   Clear
2:15 PM 53.6 °F - 46.4 °F 77% 29.47 in - South 6.9 mph - N/A   Clear
2:45 PM 53.6 °F - 46.4 °F 77% 29.44 in - SW 3.5 mph - N/A   Clear
3:15 PM 51.8 °F - 44.6 °F 76% 29.44 in - SSW 8.1 mph - N/A   Clear
3:45 PM 50.0 °F - 44.6 °F 82% 29.44 in 6.2 mi SW 6.9 mph - N/A   Mostly Cloudy
4:45 PM 50.0 °F - 44.6 °F 82% 29.44 in 6.2 mi SW 5.8 mph - N/A   Overcast
6:00 PM - - - N/A% - - North - - N/A   Unknown
7:00 PM 46 °F - 43 °F 85% 29.46 in - ENE 4.5 mph - -